Simultaneous Nadir Overpasses (SNOs) Predictions

Prediction of SNOs between GOES-15 and METOP-C Satellite Orbit:

Table of predicted SNOs for the next 14.0 days since TLE Epoch: 7/19/2020
Index Date Time (GOES-15) GOES-15 Lat,Lon METOP-C Lat,Lon Distance(km) Time Diff (sec)
1 07/20/2020 05:50:49 0.00,-128.39 0.71,-125.27 356.01 80
2 07/21/2020 18:09:41 -0.00,-128.39 0.30,-129.83 163.74 80
3 07/22/2020 17:51:42 -0.00,-128.40 -0.81,-124.84 406.08 80
4 07/24/2020 06:10:41 0.00,-128.41 -0.23,-129.43 115.99 80
5 07/25/2020 05:47:22 0.00,-128.41 0.89,-124.44 453.20 80
6 07/26/2020 18:06:14 -0.00,-128.41 0.12,-129.00 67.56 80
7 07/29/2020 06:07:14 0.01,-128.42 -0.05,-128.60 20.92 80
8 07/31/2020 18:05:27 -0.01,-128.39 -0.07,-128.17 25.38 80
9 08/02/2020 06:24:26 0.01,-128.40 -0.97,-132.76 497.26 80
